Location: Sawmill Trailhead
(33.5800°N, 116.4497°W)
Time: 07:56:10
(UTC-07:00)

OTV 5 (USA 277) - Visible Passes

Search period start: 18 April 2019 00:00
Search period end: 28 April 2019 00:00
Orbit: 310 x 325 km, 54.5° (Epoch: 16 April)

Date Brightness Start Highest point End Pass type
(mag) Time Alt. Az. Time Alt. Az. Time Alt. Az.
18 Apr ? 05:32:12 10° NNE 05:32:44 10° NE 05:33:15 10° NE visible
21 Apr ? 04:41:01 10° N 04:42:50 16° NE 04:44:37 10° E visible
22 Apr ? 04:55:06 10° NNW 04:57:42 49° NE 05:00:17 10° ESE visible
22 Apr ? 21:12:21 10° WSW 21:14:43 29° NW 21:14:43 29° NW visible
23 Apr ? 05:10:05 11° WNW 05:12:24 36° SW 05:14:52 10° SSE visible
23 Apr ? 19:52:45 10° SSW 19:55:16 35° SE 19:57:48 10° ENE visible
23 Apr ? 21:28:43 10° WNW 21:29:43 11° NW 21:30:43 10° NNW visible
24 Apr ? 05:27:22 11° SW 05:27:22 11° SW 05:27:42 10° SW visible
24 Apr ? 20:07:17 10° SW 20:09:58 53° NW 20:12:38 10° NNE visible
25 Apr ? 20:22:52 10° W 20:24:49 18° NW 20:26:46 10° N visible
